Demopolis Municipal Airport, AL

5:32 AM CST on November 20, 2019 (GMT -0600)
Demopolis Municipal Airport

Weather History for KDYA - September, 2019

Change the Weather History Date:

Wednesday, September 25, 2019

  Actual Average (KNMM) Record (KNMM)
Temperature  
Mean Temperature 83 °F -  
Max Temperature 95 °F 80 °F 98 °F (2016)
Min Temperature 71 °F 59 °F 48 °F (2001)
Cooling Degree Days 18    
Growing Degree Days 33 (Base 50)    
Moisture  
Dew Point 70 °F    
Average Humidity 66    
Maximum Humidity 100    
Minimum Humidity 39    
Precipitation  
Precipitation 0.00 in - - ()
Sea Level Pressure  
Sea Level Pressure 29.90 in    
Wind  
Wind Speed 1 mph ()    
Max Wind Speed 8 mph    
Max Gust Speed -    
Visibility 9.0 miles    
Events      
Averages and records for this station are not official NWS values.
T = Trace of Precipitation, MM = Missing Value Source: Averaged Metar Reports

Daily Weather History Graph

Daily Weather History Graph

Search for Another Location

Airport or City:

Astronomy

Sep. 25, 2019 Rise Set
Actual Time 6:41 AM CDT 6:44 PM CDT
Civil Twilight 6:17 AM CDT 7:09 PM CDT
Nautical Twilight 5:48 AM CDT 7:37 PM CDT
Astronomical Twilight 5:19 AM CDT 8:06 PM CDT
Moon 2:53 AM CDT (9/25) 5:00 PM CDT (9/25)
Length of Visible Light 12h 51m
Length of Day
12h 02m
Waning Crescent, 14% of the Moon is Illuminated
Sep 25
Waning Crescent
Sep 28
New
Oct 5
First Quarter
Oct 13
Full
Oct 21
Last Quarter

Hourly Weather History & Observations

Time (CDT) Temp. Heat Index Dew Point Humidity Pressure Visibility Wind Dir Wind Speed Gust Speed Precip Events Conditions
12:15 AM 72.5 °F - 72.1 °F 99% 29.88 in 10.0 mi Calm Calm - N/A   Clear
12:35 AM 71.6 °F - 71.4 °F 99% 29.87 in 7.0 mi Calm Calm - N/A   Clear
12:55 AM 71.6 °F - 71.6 °F 100% 29.88 in 7.0 mi Calm Calm - N/A   Clear
1:15 AM 71.2 °F - 71.2 °F 100% 29.88 in 7.0 mi Calm Calm - N/A   Clear
1:35 AM 71.1 °F - 71.1 °F 100% 29.88 in 7.0 mi Calm Calm - N/A   Clear
1:55 AM - - - N/A% 29.88 in 7.0 mi Calm Calm - N/A   Clear
2:15 AM - - - N/A% 29.88 in 7.0 mi Calm Calm - N/A   Clear
2:35 AM - - - N/A% 29.88 in 7.0 mi Calm Calm - N/A   Clear
2:55 AM - - - N/A% 29.88 in 7.0 mi Calm Calm - N/A   Clear
3:15 AM - - - N/A% 29.88 in 7.0 mi Calm Calm - N/A   Clear
3:35 AM - - - N/A% 29.89 in 7.0 mi Calm Calm - N/A   Clear
3:55 AM - - - N/A% 29.89 in 7.0 mi Calm Calm - N/A   Clear
4:15 AM - - - N/A% 29.89 in 7.0 mi Calm Calm - N/A   Clear
4:35 AM - - - N/A% 29.89 in 7.0 mi Calm Calm - N/A   Clear
4:55 AM - - - N/A% 29.90 in 5.0 mi Calm Calm - N/A   Haze
5:15 AM - - - N/A% 29.91 in 10.0 mi Calm Calm - N/A   Clear
5:35 AM - - - N/A% 29.91 in 5.0 mi Calm Calm - N/A   Haze
5:55 AM - - - N/A% 29.92 in 5.0 mi Calm Calm - N/A   Haze
6:15 AM - - - N/A% 29.92 in 5.0 mi Calm Calm - N/A   Haze
6:35 AM - - - N/A% 29.93 in 7.0 mi Calm Calm - N/A   Clear
6:55 AM - - - N/A% 29.94 in 10.0 mi Calm Calm - N/A   Clear
7:35 AM - - - N/A% 29.95 in 7.0 mi Calm Calm - N/A   Clear
7:55 AM - - - N/A% 29.96 in 10.0 mi Calm Calm - N/A   Clear
8:15 AM 74.8 °F - 74.1 °F 98% 29.95 in 10.0 mi Calm Calm - N/A   Scattered Clouds
8:35 AM 76.6 °F - 72.7 °F 87% 29.96 in 10.0 mi Calm Calm - N/A   Clear
8:55 AM 78.4 °F - 72.7 °F 82% 29.96 in 10.0 mi Calm Calm - N/A   Scattered Clouds
9:15 AM 80.6 °F 84.6 °F 71.6 °F 74% 29.96 in 10.0 mi West 3.5 mph - N/A   Scattered Clouds
9:35 AM 81.5 °F 85.9 °F 71.6 °F 72% 29.96 in 10.0 mi Calm Calm - N/A   Mostly Cloudy
9:55 AM 83.3 °F 88.4 °F 72.0 °F 68% 29.97 in 10.0 mi Calm Calm - N/A   Mostly Cloudy
10:35 AM 84.4 °F 88.7 °F 70.0 °F 62% 29.96 in 10.0 mi West 3.5 mph - N/A   Mostly Cloudy
10:55 AM 86.2 °F 90.7 °F 69.8 °F 58% 29.96 in 10.0 mi West 3.5 mph - N/A   Scattered Clouds
11:15 AM 88.3 °F 92.8 °F 69.3 °F 53% 29.95 in 10.0 mi West 5.8 mph - N/A   Scattered Clouds
11:35 AM 89.1 °F 93.3 °F 68.9 °F 51% 29.95 in 10.0 mi NW 3.5 mph - N/A   Clear
11:55 AM 90.1 °F 94.9 °F 69.1 °F 50% 29.94 in 10.0 mi West 6.9 mph - N/A   Clear
12:15 PM 91.4 °F 94.5 °F 66.7 °F 44% 29.94 in 10.0 mi NW 5.8 mph - N/A   Clear
12:35 PM 92.5 °F 96.4 °F 67.6 °F 44% 29.92 in 10.0 mi WSW 8.1 mph - N/A   Clear
12:55 PM 90.3 °F 93.9 °F 67.6 °F 47% 29.91 in 10.0 mi West 5.8 mph - N/A   Scattered Clouds
1:15 PM 91.8 °F 95.1 °F 67.1 °F 44% 29.90 in 10.0 mi Calm Calm - N/A   Clear
1:35 PM 93.6 °F 97.4 °F 67.1 °F 42% 29.89 in 10.0 mi SW 5.8 mph - N/A   Clear
1:55 PM 91.8 °F 95.1 °F 67.3 °F 44% 29.89 in 10.0 mi Calm Calm - N/A   Scattered Clouds
2:15 PM 91.8 °F 94.6 °F 66.2 °F 43% 29.88 in 10.0 mi Calm Calm - N/A   Scattered Clouds
2:35 PM 95.0 °F 98.5 °F 66.2 °F 39% 29.87 in 10.0 mi Calm Calm - N/A   Scattered Clouds
2:55 PM 94.5 °F 97.5 °F 66.2 °F 39% 29.86 in 10.0 mi NW 3.5 mph - N/A   Scattered Clouds
3:15 PM 94.3 °F 97.2 °F 65.8 °F 39% 29.86 in 10.0 mi Calm Calm - N/A   Clear
3:55 PM 92.8 °F 95.2 °F 65.3 °F 40% 29.86 in 10.0 mi WNW 3.5 mph - N/A   Clear
4:15 PM 92.8 °F 96.1 °F 66.7 °F 42% 29.86 in 10.0 mi West 3.5 mph - N/A   Clear
4:35 PM 93.9 °F 97.0 °F 66.0 °F 40% 29.85 in 10.0 mi SW 3.5 mph - N/A   Clear
4:55 PM 94.3 °F 97.2 °F 65.8 °F 39% 29.85 in 10.0 mi NW 3.5 mph - N/A   Scattered Clouds
5:15 PM 93.4 °F 95.6 °F 65.3 °F 39% 29.84 in 10.0 mi North 4.6 mph - N/A   Scattered Clouds
5:55 PM 91.2 °F 94.6 °F 66.9 °F 45% 29.84 in 10.0 mi North 4.6 mph - N/A   Scattered Clouds
6:15 PM 88.7 °F 92.6 °F 68.5 °F 51% 29.84 in 10.0 mi North 3.5 mph - N/A   Scattered Clouds
6:35 PM 86.7 °F 91.0 °F 69.4 °F 56% 29.85 in 10.0 mi Calm Calm - N/A   Clear
6:55 PM 86.4 °F 90.4 °F 69.1 °F 56% 29.85 in 10.0 mi Calm Calm - N/A   Scattered Clouds
7:15 PM 82.9 °F 87.7 °F 71.2 °F 68% 29.86 in 10.0 mi North 3.5 mph - N/A   Scattered Clouds
7:35 PM 82.8 °F 86.9 °F 70.3 °F 66% 29.86 in 10.0 mi Calm Calm - N/A   Scattered Clouds
7:55 PM 81.1 °F 85.4 °F 71.6 °F 73% 29.87 in 10.0 mi Calm Calm - N/A   Scattered Clouds
8:15 PM 80.1 °F 83.4 °F 70.7 °F 73% 29.87 in 10.0 mi Calm Calm - N/A   Scattered Clouds
8:35 PM 79.3 °F - 71.4 °F 77% 29.89 in 10.0 mi Calm Calm - N/A   Scattered Clouds
8:55 PM 79.5 °F - 70.9 °F 75% 29.89 in 10.0 mi Calm Calm - N/A   Mostly Cloudy
9:15 PM 78.4 °F - 72.1 °F 81% 29.90 in 10.0 mi Calm Calm - N/A   Scattered Clouds
9:35 PM 78.1 °F - 71.4 °F 80% 29.90 in 10.0 mi Calm Calm - N/A   Scattered Clouds
9:55 PM 78.3 °F - 72.0 °F 81% 29.90 in 10.0 mi Calm Calm - N/A   Clear
10:15 PM 77.5 °F - 72.7 °F 85% 29.91 in 10.0 mi Calm Calm - N/A   Clear
10:35 PM 76.3 °F - 71.4 °F 85% 29.91 in 10.0 mi Calm Calm - N/A   Clear
10:55 PM 76.1 °F - 72.0 °F 87% 29.91 in 10.0 mi Calm Calm - N/A   Clear
11:15 PM 75.4 °F - 71.2 °F 87% 29.91 in 10.0 mi Calm Calm - N/A   Clear
11:35 PM 75.4 °F - 71.1 °F 86% 29.90 in 10.0 mi Calm Calm - N/A   Clear
11:55 PM 75.2 °F - 71.2 °F 87% 29.90 in 10.0 mi Calm Calm - N/A   Clear